Dewpoint
41 39 37 38 38 37 36 37 39 39 39 40 41 41 41 41 41 40 39 39 39 38
40 38 38 38 37 36 37 38 39 41 39 39 39 39 38 38 37 38 38 38 38 37
38 37 36 35 36 36 38 39 37 35 34 34 34 34 35 35 36 36 36 35 35 35
37 34 33 34 35 36 37 34 33 32 33 34 35 34 34 34 32 30 30 31 31 30
33 30 32 34 35 37 36 34 33 32 34 35 32 34 31 29 27 25 24 24 26 25
33 31 32 37 38 38 37 36 36 37 35 33 30 28 26 25 25 25 26 26 26 25
36 36 37 38 38 38 36 35 34 35 36 33 26 23 23 23 25 24 23 24 23 22
39 38 37 34 32 33 34 35 35 36 33 26 23 18 25 24 23 23 23 24 22 23
30 30 31 32 33 32 29 25 25 24 23 24 21 31 27 28 25 24 23 22 21 21
32 28 25 24 23 23 23 23 22 22 23 24 25 26 26 26 22 22 22 20 19 18
28 23 23 23 22 21 21 21 20 23 24 21 19 23 24 24 23 24 23 21 20 20
23 23 23 21 20 21 20 20 21 19 20 19 20 22 22 23 25 24 23 21 21 21
23 22 21 20 19 20 19 19 19 19 19 21 23 22 23 23 23 24 22 23 23 24
22 22 21 19 19 18 18 22 25 25 24 23 22 22 22 21 24 23 23 23 23 25
Lifted_Index
7 8 8 9 9 9 8 8 8 8 8 9 9 9 9 9 10 10 10 10 9 8
7 8 9 9 9 8 8 8 8 8 9 9 9 10 9 9 9 9 9 9 8 7
7 8 9 9 9 8 8 8 8 9 9 9 9 9 9 8 8 7 7 7 7 6
8 8 8 8 8 8 8 8 8 9 9 8 7 7 7 6 6 6 6 6 6 7
8 8 8 8 8 8 8 8 8 8 7 6 5 5 5 5 6 6 6 7 8 8
8 8 8 8 8 8 8 8 7 6 5 4 4 4 5 5 6 6 7 8 9 9
7 7 7 7 7 7 7 6 5 5 4 4 5 5 5 6 7 7 8 9 9 10
7 7 7 7 8 7 7 6 6 5 6 6 6 7 7 7 8 9 10 10 10 11
8 8 8 8 8 8 7 7 7 8 8 8 8 8 9 9 10 10 11 11 11 11
8 9 9 9 9 9 9 9 9 9 9 9 10 10 11 11 11 11 12 12 12 12
8 9 9 9 9 9 9 10 10 10 10 10 10 11 11 12 12 12 12 12 13 13
8 8 9 9 9 9 9 10 10 10 10 10 10 11 11 12 12 12 12 12 13 13
8 8 9 9 9 9 9 9 9 9 9 9 9 10 11 11 12 12 12 12 12 13
8 8 8 9 9 9 9 8 8 8 8 8 9 9 10 11 11 11 11 11 12 12